Date String (YYYY-MM-DD hh:mm:ss) UTC,Instrument flags,absolute air pressure of the measurement (hPa),sample flow rate (lpm),inlet stack bypass flow (lpm),air temperature of the measurement (°C),ambient temperature measured by the external sensor (°C),aerosol sample conditioner tube jacket temperature (°C),OPC LED temperature (°C),internal box temperature (°C),relative humidity of the measurement (%),span deviation,mass concentration of particles derived from Lorenz-Mie calculation of OPC scattering (μg/m³),mass concentration of particles derived from Lorenz-Mie calculation of OPC scattering (μg/m³),mass concentration of particles derived from Lorenz-Mie calculation of OPC scattering (μg/m³)
DateTimeUTC,F1_M11,P_M11,Q1_M11,Q2_M11,T1_M11,T2_M11,T3_M11,T4_M11,T5_M11,U1_M11,ZSPAN_M11,X0_M11,X2_M11,X1_M11
2023-09-09 08:00:00,SystemResetWarning,0834.9,5.00,000.00,028.2,026.1,000.0,036.6,029.6,10.4,0000.0,0004.00,0001.33,0000.79
2023-09-09 08:01:00,SystemResetWarning,0834.9,5.00,000.00,028.2,026.3,000.0,036.6,029.7,10.4,0000.0,0003.41,0001.28,0000.79
2023-09-09 08:02:00,SystemResetWarning,0834.9,5.00,000.00,028.2,026.5,000.0,036.6,029.7,10.4,0000.0,0003.56,0001.24,0000.79
2023-09-09 08:03:00,SystemResetWarning,0834.9,5.00,000.00,028.2,026.7,000.0,036.7,029.8,10.4,0000.0,0004.49,0001.27,0000.79
2023-09-09 08:04:00,SystemResetWarning,0834.9,5.01,000.00,028.2,026.8,000.0,036.7,029.8,10.4,0000.0,0004.51,0001.28,0000.79
2023-09-09 08:05:00,SystemResetWarning,0834.8,5.01,000.00,028.3,026.9,000.0,036.7,029.8,10.3,0000.0,0004.33,0001.28,0000.80
2023-09-09 08:06:00,SystemResetWarning,0835.1,5.00,000.00,028.3,027.0,000.0,036.7,029.9,10.3,0000.0,0004.16,0001.27,0000.80
2023-09-09 08:07:00,SystemResetWarning,0835.3,5.00,000.00,028.3,027.1,000.0,036.7,029.9,10.2,0000.0,0004.07,0001.23,0000.80
2023-09-09 08:08:00,SystemResetWarning,0835.3,5.00,000.00,028.4,027.2,000.0,036.7,029.9,10.2,0000.0,0004.00,0001.20,0000.81
2023-09-09 08:09:00,SystemResetWarning,0835.3,5.00,000.00,028.4,027.3,000.0,036.7,030.0,10.2,0000.0,0004.79,0001.15,0000.81
2023-09-09 08:10:00,SystemResetWarning,0835.3,5.00,000.00,028.4,027.3,000.0,036.8,030.0,10.2,0000.0,0005.79,0001.16,0000.82
2023-09-09 08:11:00,SystemResetWarning,0835.3,5.00,000.00,028.4,027.4,000.0,036.8,030.0,10.2,0000.0,0005.82,0001.21,0000.82
2023-09-09 08:12:00,SystemResetWarning,0835.3,4.99,000.00,028.5,027.4,000.0,036.8,030.1,10.1,0000.0,0005.49,0001.20,0000.81
2023-09-09 08:13:00,SystemResetWarning,0835.3,4.99,000.00,028.5,027.5,000.0,036.8,030.1,10.1,0000.0,0005.45,0001.21,0000.81
2023-09-09 08:14:00,SystemResetWarning,0835.4,5.00,000.00,028.5,027.5,000.0,036.9,030.1,10.2,0000.0,0004.06,0001.17,0000.82
2023-09-09 08:15:00,SystemResetWarning,0835.4,5.01,000.00,028.6,027.2,000.0,036.9,030.1,10.3,0000.0,0003.79,0001.13,0000.82
2023-09-09 08:16:00,SystemResetWarning,0835.3,5.00,000.00,028.5,025.5,000.0,036.8,029.9,10.2,0000.0,0003.71,0001.12,0000.82
2023-09-09 08:17:00,SystemResetWarning,0834.8,5.02,000.00,028.5,024.7,000.0,036.7,029.8,10.3,0000.0,0003.68,0001.11,0000.83
2023-09-09 08:18:00,SystemResetWarning,0834.7,5.00,000.00,028.4,024.8,000.0,036.7,029.7,10.3,0000.0,0003.90,0001.18,0000.83
2023-09-09 08:19:00,SystemResetWarning,0834.8,5.00,000.00,028.3,025.1,000.0,036.7,029.5,11.0,0000.0,0003.99,0001.20,0000.83
2023-09-09 08:20:00,SystemResetWarning,0834.7,5.00,000.00,028.3,025.4,000.0,036.7,029.5,10.7,0000.0,0003.64,0001.21,0000.83
2023-09-09 08:21:00,SystemResetWarning,0834.7,5.00,000.00,028.2,025.7,000.0,036.7,029.6,10.7,0000.0,0002.33,0001.20,0000.84
2023-09-09 08:22:00,SystemResetWarning,0834.8,5.00,000.00,028.2,026.0,000.0,036.7,029.6,10.6,0000.0,0002.33,0001.16,0000.84
2023-09-09 08:23:00,SystemResetWarning,0834.7,5.00,000.00,028.2,026.3,000.0,036.7,029.7,10.6,0000.0,0002.34,0001.17,0000.85
2023-09-09 08:24:00,SystemResetWarning,0834.8,5.00,000.00,028.2,026.5,000.0,036.7,029.7,10.6,0000.0,0002.37,0001.18,0000.86
2023-09-09 08:25:00,SystemResetWarning,0834.7,5.00,000.00,028.3,026.7,000.0,036.7,029.8,10.5,0000.0,0002.43,0001.22,0000.87
2023-09-09 08:26:00,SystemResetWarning,0835.1,5.00,000.00,028.3,026.8,000.0,036.7,029.8,10.4,0000.0,0002.61,0001.28,0000.88
2023-09-09 08:27:00,SystemResetWarning,0835.3,5.00,000.00,028.3,026.9,000.0,036.7,029.8,10.4,0000.0,0002.68,0001.31,0000.89
2023-09-09 08:28:00,SystemResetWarning,0835.4,5.00,000.00,028.3,027.0,000.0,036.7,029.9,10.5,0000.0,0002.73,0001.34,0000.89
2023-09-09 08:29:00,SystemResetWarning,0835.1,5.00,000.00,028.3,027.1,000.0,036.7,029.9,10.5,0000.0,0003.32,0001.32,0000.90
2023-09-09 08:30:00,SystemResetWarning,0835.1,5.01,000.00,028.4,027.2,000.0,036.7,030.0,10.6,0000.0,0003.95,0001.30,0000.90
2023-09-09 08:31:00,SystemResetWarning,0835.2,5.00,000.00,028.4,027.3,000.0,036.8,030.0,10.6,0000.0,0003.88,0001.28,0000.90
2023-09-09 08:32:00,SystemResetWarning,0835.1,5.00,000.00,028.4,027.3,000.0,036.8,030.0,10.7,0000.0,0003.85,0001.31,0000.89
2023-09-09 08:33:00,SystemResetWarning,0835.1,5.00,000.00,028.5,027.4,000.0,036.8,030.1,10.7,0000.0,0003.62,0001.32,0000.89
2023-09-09 08:34:00,SystemResetWarning,0835.3,5.00,000.00,028.5,027.4,000.0,036.8,030.1,10.7,0000.0,0003.60,0001.30,0000.89
2023-09-09 08:35:00,SystemResetWarning,0835.2,5.00,000.00,028.5,027.5,000.0,036.8,030.1,10.7,0000.0,0003.60,0001.32,0000.90
2023-09-09 08:36:00,SystemResetWarning,0835.2,5.00,000.00,028.5,027.5,000.0,036.9,030.2,10.7,0000.0,0003.62,0001.32,0000.90
2023-09-09 08:37:00,SystemResetWarning,0835.3,4.99,000.00,028.6,027.5,000.0,036.9,030.2,10.7,0000.0,0003.69,0001.30,0000.89
2023-09-09 08:38:00,SystemResetWarning,0835.1,4.99,000.00,028.6,026.1,000.0,036.8,030.0,10.8,0000.0,0003.97,0001.31,0000.88
2023-09-09 08:39:00,SystemResetWarning,0834.7,5.01,000.00,028.5,024.8,000.0,036.7,029.8,10.7,0000.0,0004.20,0001.34,0000.88
2023-09-09 08:40:00,SystemResetWarning,0834.7,5.00,000.00,028.4,024.7,000.0,036.7,029.8,10.8,0000.0,0004.04,0001.33,0000.87
2023-09-09 08:41:00,SystemResetWarning,0834.7,5.01,000.00,028.3,024.9,000.0,036.7,029.5,10.8,0000.0,0003.11,0001.31,0000.87
2023-09-09 08:42:00,SystemResetWarning,0834.7,4.99,000.00,028.3,025.2,000.0,036.7,029.5,10.8,0000.0,0003.35,0001.34,0000.88
2023-09-09 08:43:00,SystemResetWarning,0834.7,4.99,000.00,028.2,025.6,000.0,036.7,029.6,10.9,0000.0,0003.43,0001.37,0000.89
2023-09-09 08:44:00,SystemResetWarning,0834.7,5.00,000.00,028.2,025.9,000.0,036.7,029.6,10.8,0000.0,0003.42,0001.37,0000.89
2023-09-09 08:45:00,SystemResetWarning,0834.7,5.00,000.00,028.2,026.2,000.0,036.7,029.6,10.8,0000.0,0003.49,0001.40,0000.90
2023-09-09 08:46:00,SystemResetWarning,0834.7,5.01,000.00,028.2,026.4,000.0,036.7,029.7,10.8,0000.0,0003.49,0001.40,0000.90
2023-09-09 08:47:00,SystemResetWarning,0834.8,5.01,000.00,028.2,026.6,000.0,036.7,029.7,10.7,0000.0,0003.47,0001.36,0000.90
2023-09-09 08:48:00,SystemResetWarning,0834.7,5.00,000.00,028.3,026.7,000.0,036.7,029.8,10.8,0000.0,0003.50,0001.42,0000.91
2023-09-09 08:49:00,SystemResetWarning,0834.7,5.00,000.00,028.3,026.8,000.0,036.7,029.8,10.8,0000.0,0003.31,0001.44,0000.92
2023-09-09 08:50:00,SystemResetWarning,0834.7,4.99,000.00,028.3,026.9,000.0,036.7,029.8,10.8,0000.0,0003.16,0001.42,0000.91
2023-09-09 08:51:00,SystemResetWarning,0834.7,4.99,000.00,028.3,027.0,000.0,036.7,029.9,10.8,0000.0,0002.99,0001.45,0000.93
2023-09-09 08:52:00,SystemResetWarning,0834.7,5.00,000.00,028.3,027.1,000.0,036.7,029.9,10.8,0000.0,0003.44,0001.48,0000.94
2023-09-09 08:53:00,SystemResetWarning,0834.7,5.00,000.00,028.4,027.2,000.0,036.7,029.9,10.8,0000.0,0004.99,0001.49,0000.94
2023-09-09 08:54:00,SystemResetWarning,0834.7,5.00,000.00,028.4,027.2,000.0,036.7,030.0,10.8,0000.0,0006.12,0001.49,0000.94
2023-09-09 08:55:00,SystemResetWarning,0834.7,5.01,000.00,028.4,027.3,000.0,036.8,030.0,10.8,0000.0,0006.57,0001.59,0001.01
2023-09-09 08:56:00,SystemResetWarning,0834.7,5.01,000.00,028.4,027.3,000.0,036.8,030.0,10.8,0000.0,0006.73,0001.63,0001.03
2023-09-09 08:57:00,SystemResetWarning,0834.7,5.00,000.00,028.5,027.4,000.0,036.8,030.1,10.8,0000.0,0006.80,0001.67,0001.04
2023-09-09 08:58:00,SystemResetWarning,0834.7,5.01,000.00,028.5,027.4,000.0,036.8,030.1,10.8,0000.0,0006.84,0001.72,0001.05
2023-09-09 08:59:00,SystemResetWarning,0834.7,4.99,000.00,028.5,027.4,000.0,036.8,030.1,10.7,0000.0,0006.58,0001.63,0001.04
